FW3914 Weather Reports


Display with metric or nautical units.
time (UTC)temp
F
wind
direction
speed
MPH
gust
MPH
rain 1hr
in
rain 24hr
in
rain mn
in
humidity
%
barometer
mb
20260901134041 86 228 2.0 4.0 0.00 0.00 0.00 68 1017.8
20260901133540 86 242 3.0 5.0 0.00 0.00 0.00 68 1017.9
20260901133038 86 284 2.0 5.0 0.00 0.00 0.00 69 1017.8
20260901132533 86 322 0.0 5.0 0.00 0.00 0.00 69 1017.7
20260901132032 86 258 1.0 4.0 0.00 0.00 0.00 68 1017.7
20260901131527 85 240 3.0 4.0 0.00 0.00 0.00 70 1017.9
20260901131023 84 248 3.0 5.0 0.00 0.00 0.00 71 1017.9
20260901130522 84 204 2.0 3.0 0.00 0.00 0.00 71 1017.7
20260901130021 84 113 1.0 3.0 0.00 0.00 0.00 71 1017.7
20260901125520 83 216 1.0 3.0 0.00 0.00 0.00 71 1017.4
20260901125015 81 125 1.0 3.0 0.00 0.00 0.00 74 1017.6
20260901124510 81 125 1.0 3.0 0.00 0.00 0.00 74 1017.6
20260901124009 81 197 2.0 4.0 0.00 0.00 0.00 75 1017.3
20260901123505 80 207 2.0 3.0 0.00 0.00 0.00 76 1017.5
20260901123004 80 222 2.0 3.0 0.00 0.00 0.00 76 1017.0
20260901122457 79 238 2.0 4.0 0.00 0.00 0.00 76 1017.2
20260901121956 79 333 0.0 2.0 0.00 0.00 0.00 77 1016.9
20260901121451 79 333 0.0 2.0 0.00 0.00 0.00 76 1017.0
20260901120946 79 245 0.0 2.0 0.00 0.00 0.00 76 1017.0
20260901120441 79 229 0.0 2.0 0.00 0.00 0.00 77 1016.9
20260901115936 79 242 0.0 2.0 0.00 0.00 0.00 76 1016.7
20260901115431 79 271 1.0 2.0 0.00 0.00 0.00 76 1016.9
20260901114929 80 238 0.0 2.0 0.00 0.00 0.00 75 1016.6
20260901114424 80 202 0.0 3.0 0.00 0.00 0.00 75 1016.8
20260901113922 80 180 2.0 3.0 0.00 0.00 0.00 75 1016.6
20260901113421 80 312 0.0 2.0 0.00 0.00 0.00 75 1016.6
20260901112917 80 242 0.0 2.0 0.00 0.00 0.00 75 1016.6
20260901112411 80 213 0.0 3.0 0.00 0.00 0.00 74 1016.6
20260901111906 80 252 1.0 2.0 0.00 0.00 0.00 75 1016.5
20260901111404 80 175 1.0 2.0 0.00 0.00 0.00 75 1016.5
20260901110903 80 199 2.0 2.0 0.00 0.00 0.00 75 1016.5
20260901110359 80 205 0.0 2.0 0.00 0.00 0.00 74 1016.4
20260901105855 80 236 2.0 3.0 0.00 0.00 0.00 74 1016.4
20260901105350 80 222 2.0 3.0 0.00 0.00 0.00 74 1016.1
20260901104846 80 237 0.0 3.0 0.00 0.00 0.00 74 1016.4
20260901104341 80 200 0.0 3.0 0.00 0.00 0.00 74 1016.2
20260901103837 80 242 0.0 3.0 0.00 0.00 0.00 74 1016.4
20260901103336 80 200 2.0 2.0 0.00 0.00 0.00 73 1016.5
20260901102831 81 215 1.0 2.0 0.00 0.00 0.00 73 1016.1
20260901102326 81 201 2.0 3.0 0.00 0.00 0.00 72 1016.5
20260901101821 81 215 2.0 5.0 0.00 0.00 0.00 72 1016.5
20260901101320 81 242 2.0 3.0 0.00 0.00 0.00 72 1016.6
20260901100815 81 237 2.0 3.0 0.00 0.00 0.00 71 1016.4
20260901100310 81 224 0.0 3.0 0.00 0.00 0.00 71 1016.6
20260901095808 82 185 0.0 3.0 0.00 0.00 0.00 71 1016.5
20260901095307 82 191 2.0 3.0 0.00 0.00 0.00 71 1016.4
20260901094801 82 220 0.0 3.0 0.00 0.00 0.00 70 1016.7
20260901094255 82 188 2.0 3.0 0.00 0.00 0.00 70 1016.5
20260901093750 82 240 1.0 3.0 0.00 0.00 0.00 70 1016.6
20260901093249 82 269 0.0 2.0 0.00 0.00 0.00 69 1016.7
20260901092745 82 186 0.0 3.0 0.00 0.00 0.00 69 1016.8
20260901092241 82 186 2.0 3.0 0.00 0.00 0.00 68 1016.5
20260901091731 82 208 0.0 2.0 0.00 0.00 0.00 68 1016.6
20260901091226 82 222 0.0 3.0 0.00 0.00 0.00 68 1016.7
20260901090721 83 238 2.0 3.0 0.00 0.00 0.00 68 1016.6
20260901090216 83 226 0.0 3.0 0.00 0.00 0.00 67 1016.6
20260901085712 83 269 0.0 2.0 0.00 0.00 0.00 66 1016.6
20260901085207 83 180 2.0 3.0 0.00 0.00 0.00 66 1016.5
20260901084704 83 240 0.0 2.0 0.00 0.00 0.00 66 1016.6
20260901084159 83 215 2.0 3.0 0.00 0.00 0.00 66 1016.5
20260901083653 83 269 0.0 2.0 0.00 0.00 0.00 65 1016.3
20260901083152 83 351 0.0 3.0 0.00 0.00 0.00 65 1016.4
20260901082646 83 299 2.0 3.0 0.00 0.00 0.00 65 1016.4
20260901082142 83 328 1.0 3.0 0.00 0.00 0.00 64 1016.2
20260901081637 84 284 1.0 2.0 0.00 0.00 0.00 64 1016.2
20260901081131 84 201 1.0 3.0 0.00 0.00 0.00 63 1016.2
20260901080631 84 206 2.0 3.0 0.00 0.00 0.00 63 1016.2
20260901080130 84 233 0.0 4.0 0.00 0.00 0.00 62 1016.0
20260901075626 84 224 2.0 5.0 0.00 0.00 0.00 62 1016.0
20260901075125 85 220 0.0 5.0 0.00 0.00 0.00 61 1016.2
20260901074625 85 245 2.0 5.0 0.00 0.00 0.00 61 1016.2
20260901074120 85 275 2.0 5.0 0.00 0.00 0.00 60 1016.3
20260901073616 85 201 3.0 3.0 0.00 0.00 0.00 60 1016.3
20260901073111 85 185 0.0 3.0 0.00 0.00 0.00 60 1016.2
20260901072607 85 230 1.0 5.0 0.00 0.00 0.00 60 1016.2
20260901072101 85 172 4.0 5.0 0.00 0.00 0.00 60 1016.0
20260901071556 86 241 1.0 3.0 0.00 0.00 0.00 60 1016.3
20260901071055 86 180 2.0 5.0 0.00 0.00 0.00 60 1016.3
20260901070549 85 170 2.0 4.0 0.00 0.00 0.00 59 1016.0
20260901070045 85 157 1.0 3.0 0.00 0.00 0.00 59 1016.1
20260901065539 85 199 2.0 3.0 0.00 0.00 0.00 59 1016.0
20260901065033 85 263 1.0 3.0 0.00 0.00 0.00 59 1016.4
20260901064531 85 239 0.0 4.0 0.00 0.00 0.00 58 1015.9
20260901064027 85 242 0.0 3.0 0.00 0.00 0.00 58 1015.9
20260901063523 86 255 1.0 3.0 0.00 0.00 0.00 58 1016.0
20260901063019 86 256 1.0 3.0 0.00 0.00 0.00 57 1016.2
20260901062515 86 252 2.0 3.0 0.00 0.00 0.00 57 1016.1
20260901062011 86 193 2.0 3.0 0.00 0.00 0.00 57 1015.9
20260901061507 86 254 0.0 3.0 0.00 0.00 0.00 57 1015.9
20260901061001 86 214 2.0 5.0 0.00 0.00 0.00 56 1015.9
20260901060455 86 250 1.0 4.0 0.00 0.00 0.00 56 1016.0
20260901055955 86 266 2.0 4.0 0.00 0.00 0.00 55 1015.7
20260901055452 87 53 1.0 5.0 0.00 0.00 0.00 54 1015.7
20260901054948 87 269 0.0 5.0 0.00 0.00 0.00 54 1015.7
20260901054445 87 169 1.0 5.0 0.00 0.00 0.00 54 1015.5
20260901053941 87 85 1.0 7.0 0.00 0.00 0.00 54 1015.8
20260901053436 87 258 1.0 5.0 0.00 0.00 0.00 54 1015.6
20260901052932 87 269 2.0 7.0 0.00 0.00 0.00 54 1015.7
20260901052427 87 256 0.0 5.0 0.00 0.00 0.00 53 1015.2
20260901051926 87 306 2.0 6.0 0.00 0.00 0.00 53 1015.5
20260901051422 88 330 3.0 4.0 0.00 0.00 0.00 52 1015.7
20260901050916 88 244 3.0 5.0 0.00 0.00 0.00 52 1015.5
20260901050412 88 299 2.0 4.0 0.00 0.00 0.00 51 1015.5
20260901045912 88 300 2.0 3.0 0.00 0.00 0.00 50 1015.3
20260901045411 88 258 3.0 5.0 0.00 0.00 0.00 51 1015.3
20260901044906 87 246 1.0 4.0 0.00 0.00 0.00 50 1015.2
20260901044402 87 128 0.0 2.0 0.00 0.00 0.00 49 1015.1
20260901043858 87 314 1.0 2.0 0.00 0.00 0.00 49 1015.0
20260901043354 87 283 1.0 2.0 0.00 0.00 0.00 49 1015.0
20260901042849 87 250 2.0 3.0 0.00 0.00 0.00 49 1015.2
20260901042343 87 261 2.0 3.0 0.00 0.00 0.00 49 1015.0
20260901041838 87 294 1.0 2.0 0.00 0.00 0.00 49 1015.1
20260901041333 87 269 0.0 3.0 0.00 0.00 0.00 49 1015.0
20260901040828 87 336 0.0 3.0 0.00 0.00 0.00 49 1014.9
20260901040327 88 322 0.0 2.0 0.00 0.00 0.00 49 1015.0
20260901035827 88 269 0.0 2.0 0.00 0.00 0.00 49 1014.9
20260901035326 88 286 1.0 2.0 0.00 0.00 0.00 49 1014.9
20260901034824 88 299 0.0 2.0 0.00 0.00 0.00 48 1014.9
20260901034319 88 50 0.0 2.0 0.00 0.00 0.00 48 1015.0
20260901033814 89 345 0.0 2.0 0.00 0.00 0.00 48 1014.9
20260901033313 89 309 0.0 2.0 0.00 0.00 0.00 48 1015.0
20260901032812 89 306 0.0 2.0 0.00 0.00 0.00 48 1015.1
20260901032311 89 306 1.0 2.0 0.00 0.00 0.00 48 1015.0
20260901031807 89 284 0.0 2.0 0.00 0.00 0.00 48 1015.0
20260901031303 89 278 0.0 2.0 0.00 0.00 0.00 47 1015.1
20260901030802 89 304 0.0 2.0 0.00 0.00 0.00 47 1015.0
20260901030257 89 315 0.0 3.0 0.00 0.00 0.00 47 1015.0
20260901025756 89 269 0.0 2.0 0.00 0.00 0.00 47 1014.9
20260901025251 90 316 2.0 2.0 0.00 0.00 0.00 47 1014.7
20260901024746 90 320 2.0 3.0 0.00 0.00 0.00 46 1014.7
20260901024245 90 37 0.0 4.0 0.00 0.00 0.00 46 1014.6
20260901023743 91 317 1.0 4.0 0.00 0.00 0.00 47 1014.6
20260901023239 91 337 1.0 2.0 0.00 0.00 0.00 47 1014.5
20260901022734 91 287 0.0 1.0 0.00 0.00 0.00 47 1014.5
20260901022229 91 269 0.0 1.0 0.00 0.00 0.00 47 1014.2
20260901021725 91 309 0.0 1.0 0.00 0.00 0.00 47 1014.2
20260901021220 91 291 0.0 2.0 0.00 0.00 0.00 46 1014.1
20260901020715 91 269 1.0 2.0 0.00 0.00 0.00 46 1014.1
20260901020211 91 252 2.0 3.0 0.00 0.00 0.00 48 1014.2
20260901015706 92 266 1.0 3.0 0.00 0.00 0.00 46 1014.2
20260901015201 93 284 0.0 2.0 0.00 0.00 0.00 45 1014.1
20260901014655 94 326 0.0 3.0 0.00 0.00 0.00 44 1014.2
20260901014151 94 296 0.0 2.0 0.00 0.00 0.00 44 1014.0
20260901013647 93 287 2.0 3.0 0.00 0.00 0.00 44 1014.0
20260901013142 93 235 1.0 3.0 0.00 0.00 0.00 44 1014.0
20260901012637 93 275 2.0 3.0 0.00 0.00 0.00 44 1013.9
20260901012132 94 269 2.0 4.0 0.00 0.00 0.00 44 1014.0
20260901011628 94 260 1.0 3.0 0.00 0.00 0.00 44 1013.9
20260901011126 94 261 1.0 3.0 0.00 0.00 0.00 41 1013.8
20260901010621 95 315 2.0 3.0 0.00 0.00 0.00 40 1013.9
20260901010121 95 298 2.0 4.0 0.00 0.00 0.00 40 1013.9
20260901005620 96 240 2.0 5.0 0.00 0.00 0.00 39 1014.0
20260901005116 96 234 3.0 4.0 0.00 0.00 0.00 39 1013.9
20260901004615 96 160 2.0 4.0 0.00 0.00 0.00 38 1013.9
20260901004110 97 359 2.0 4.0 0.00 0.00 0.00 38 1013.7
20260901003605 97 284 2.0 6.0 0.00 0.00 0.00 37 1013.8
20260901003103 97 13 1.0 6.0 0.00 0.00 0.00 37 1013.8
20260901002558 97 310 3.0 7.0 0.00 0.00 0.00 37 1013.8
20260901002053 98 213 2.0 7.0 0.00 0.00 0.00 37 1013.7
20260901001548 98 272 5.0 7.0 0.00 0.00 0.00 38 1013.7
20260901001043 98 328 2.0 5.0 0.00 0.00 0.00 37 1013.7
20260901000537 99 295 1.0 4.0 0.00 0.00 0.00 37 1013.5
20260901000033 100 234 1.0 5.0 0.00 0.00 0.00 36 1013.7
20260831235526 100 327 4.0 5.0 0.00 0.00 0.00 36 1013.8
20260831235023 101 274 4.0 6.0 0.00 0.00 0.00 35 1014.0
20260831234516 101 18 4.0 7.0 0.00 0.00 0.00 35 1013.8
20260831234013 101 253 4.0 6.0 0.00 0.00 0.00 35 1014.1
20260831233507 101 89 0.0 7.0 0.00 0.00 0.00 34 1013.7
20260831233003 101 335 3.0 4.0 0.00 0.00 0.00 34 1013.7
20260831232458 101 34 4.0 6.0 0.00 0.00 0.00 34 1013.8
20260831231954 101 358 2.0 10.0 0.00 0.00 0.00 34 1013.8
20260831231451 103 327 2.0 3.0 0.00 0.00 0.00 32 1013.8
20260831230946 105 247 3.0 4.0 0.00 0.00 0.00 33 1013.8
20260831230440 103 302 2.0 5.0 0.00 0.00 0.00 33 1013.6
20260831225934 102 230 3.0 5.0 0.00 0.00 0.00 34 1013.7
20260831225431 103 269 0.0 4.0 0.00 0.00 0.00 32 1014.1
20260831224926 104 318 4.0 8.0 0.00 0.00 0.00 32 1013.7
20260831224425 104 176 4.0 6.0 0.00 0.00 0.00 32 1013.9
20260831223920 104 259 4.0 5.0 0.00 0.00 0.00 32 1013.9
20260831223416 103 294 0.0 5.0 0.00 0.00 0.00 32 1013.9
20260831222913 104 236 2.0 6.0 0.00 0.00 0.00 31 1014.1
20260831222408 104 206 7.0 8.0 0.00 0.00 0.00 31 1014.1
20260831221903 105 351 0.0 6.0 0.00 0.00 0.00 31 1014.1
20260831221358 106 169 2.0 6.0 0.00 0.00 0.00 30 1014.1
20260831220854 105 169 3.0 5.0 0.00 0.00 0.00 31 1014.2
20260831220349 104 264 2.0 8.0 0.00 0.00 0.00 32 1014.4
20260831215844 104 331 1.0 6.0 0.00 0.00 0.00 32 1014.2
20260831215339 105 226 3.0 5.0 0.00 0.00 0.00 33 1014.0
20260831214836 105 262 3.0 5.0 0.00 0.00 0.00 32 1014.5
20260831214333 104 252 4.0 10.0 0.00 0.00 0.00 33 1014.3
20260831213828 106 233 6.0 9.0 0.00 0.00 0.00 31 1014.3
20260831213325 105 216 3.0 10.0 0.00 0.00 0.00 32 1014.6
20260831212820 105 237 3.0 8.0 0.00 0.00 0.00 32 1014.5
20260831212316 106 237 4.0 6.0 0.00 0.00 0.00 31 1014.5
20260831211815 104 191 4.0 8.0 0.00 0.00 0.00 31 1014.5
20260831211310 104 228 3.0 9.0 0.00 0.00 0.00 34 1014.8
20260831210804 104 324 0.0 10.0 0.00 0.00 0.00 32 1014.6
20260831210300 105 313 8.0 9.0 0.00 0.00 0.00 31 1014.7
20260831205800 104 255 2.0 5.0 0.00 0.00 0.00 33 1014.8
20260831205256 105 199 4.0 7.0 0.00 0.00 0.00 31 1014.7
20260831204755 104 259 3.0 5.0 0.00 0.00 0.00 33 1015.0
20260831204255 104 294 0.0 8.0 0.00 0.00 0.00 32 1015.0
20260831203754 103 15 0.0 5.0 0.00 0.00 0.00 33 1015.1
20260831203249 102 169 4.0 7.0 0.00 0.00 0.00 33 1015.3
20260831202748 104 178 1.0 6.0 0.00 0.00 0.00 30 1015.3
20260831202243 104 217 3.0 7.0 0.00 0.00 0.00 31 1015.1
20260831201742 104 251 4.0 9.0 0.00 0.00 0.00 31 1015.3
20260831201241 104 251 4.0 6.0 0.00 0.00 0.00 30 1015.6
20260831200737 104 252 2.0 6.0 0.00 0.00 0.00 33 1015.6
20260831200232 104 184 4.0 7.0 0.00 0.00 0.00 31 1015.6
20260831195727 103 231 4.0 9.0 0.00 0.00 0.00 27 1015.9
20260831195223 103 254 4.0 10.0 0.00 0.00 0.00 36 1015.8
20260831194718 103 198 3.0 7.0 0.00 0.00 0.00 36 1015.7
20260831194214 102 232 2.0 8.0 0.00 0.00 0.00 36 1016.2
20260831193707 103 256 4.0 7.0 0.00 0.00 0.00 35 1016.0
20260831193203 102 241 3.0 6.0 0.00 0.00 0.00 36 1016.1
20260831192658 103 251 3.0 10.0 0.00 0.00 0.00 37 1016.5
20260831192153 102 1 6.0 10.0 0.00 0.00 0.00 36 1016.2
20260831191649 102 164 2.0 6.0 0.00 0.00 0.00 34 1016.3
20260831191145 102 244 3.0 10.0 0.00 0.00 0.00 37 1016.2
20260831190639 101 255 2.0 7.0 0.00 0.00 0.00 38 1016.4
20260831190138 100 242 3.0 11.0 0.00 0.00 0.00 38 1016.4
20260831185634 101 293 5.0 7.0 0.00 0.00 0.00 38 1016.5
20260831185129 101 199 2.0 9.0 0.00 0.00 0.00 37 1016.6
20260831184623 101 247 5.0 9.0 0.00 0.00 0.00 38 1016.5
20260831184119 101 245 2.0 9.0 0.00 0.00 0.00 38 1016.3
20260831183613 100 219 6.0 11.0 0.00 0.00 0.00 37 1016.7
20260831183112 101 207 3.0 10.0 0.00 0.00 0.00 36 1016.6
20260831182612 101 272 2.0 6.0 0.00 0.00 0.00 38 1016.9
20260831182108 100 290 2.0 7.0 0.00 0.00 0.00 38 1016.8
20260831181607 99 246 7.0 8.0 0.00 0.00 0.00 40 1016.8
20260831181102 100 299 3.0 9.0 0.00 0.00 0.00 40 1016.8
20260831180557 99 234 2.0 6.0 0.00 0.00 0.00 40 1017.1
20260831180053 99 220 2.0 5.0 0.00 0.00 0.00 41 1017.1
20260831175547 99 259 5.0 5.0 0.00 0.00 0.00 43 1017.1
20260831175044 99 190 3.0 6.0 0.00 0.00 0.00 41 1017.1
20260831174538 99 354 1.0 9.0 0.00 0.00 0.00 42 1017.3
20260831174032 98 191 3.0 8.0 0.00 0.00 0.00 42 1017.3
20260831173531 97 199 4.0 9.0 0.00 0.00 0.00 43 1017.6
20260831173027 98 208 4.0 7.0 0.00 0.00 0.00 43 1017.5
20260831172522 98 273 2.0 12.0 0.00 0.00 0.00 43 1017.7
20260831172017 98 256 2.0 6.0 0.00 0.00 0.00 45 1017.5
20260831171513 98 255 2.0 6.0 0.00 0.00 0.00 45 1017.5
20260831171010 98 202 2.0 6.0 0.00 0.00 0.00 43 1017.6
20260831170505 97 245 1.0 4.0 0.00 0.00 0.00 44 1017.9
20260831170002 96 218 5.0 6.0 0.00 0.00 0.00 45 1017.8
20260831165457 98 222 3.0 8.0 0.00 0.00 0.00 46 1017.8
20260831164954 97 232 3.0 7.0 0.00 0.00 0.00 45 1017.7
20260831164450 97 314 3.0 6.0 0.00 0.00 0.00 45 1017.7
20260831163944 96 268 4.0 8.0 0.00 0.00 0.00 45 1018.0
20260831163440 96 191 7.0 7.0 0.00 0.00 0.00 44 1017.6
20260831162938 96 216 3.0 7.0 0.00 0.00 0.00 46 1017.9
20260831162434 96 264 4.0 9.0 0.00 0.00 0.00 44 1018.0
20260831161932 97 233 3.0 6.0 0.00 0.00 0.00 44 1017.9
20260831161429 95 207 4.0 8.0 0.00 0.00 0.00 45 1017.9
20260831160925 95 225 5.0 7.0 0.00 0.00 0.00 45 1018.1
20260831160419 95 257 3.0 8.0 0.00 0.00 0.00 46 1017.9
20260831155919 94 201 4.0 20.0 0.00 0.00 0.00 45 1017.9
20260831155419 95 249 3.0 8.0 0.00 0.00 0.00 45 1017.9
20260831154915 94 229 3.0 6.0 0.00 0.00 0.00 46 1017.8
20260831154411 93 241 6.0 10.0 0.00 0.00 0.00 46 1017.9
20260831153909 93 278 4.0 7.0 0.00 0.00 0.00 45 1018.0
20260831153405 93 224 5.0 8.0 0.00 0.00 0.00 45 1017.8
20260831152901 92 220 2.0 10.0 0.00 0.00 0.00 46 1017.8
20260831152356 93 196 2.0 7.0 0.00 0.00 0.00 46 1018.0
20260831151852 93 215 3.0 9.0 0.00 0.00 0.00 50 1017.7
20260831151351 92 244 3.0 7.0 0.00 0.00 0.00 49 1017.9
20260831150846 92 247 1.0 5.0 0.00 0.00 0.00 51 1017.5
20260831150342 91 272 2.0 8.0 0.00 0.00 0.00 52 1017.5
20260831145840 91 212 2.0 6.0 0.00 0.00 0.00 54 1017.8
20260831145337 90 204 4.0 6.0 0.00 0.00 0.00 56 1017.5
20260831144832 90 247 4.0 7.0 0.00 0.00 0.00 56 1017.6
20260831144328 90 212 2.0 5.0 0.00 0.00 0.00 58 1017.7
20260831143823 89 179 1.0 5.0 0.00 0.00 0.00 59 1017.6
20260831143318 89 250 2.0 5.0 0.00 0.00 0.00 60 1017.6
20260831142813 89 216 3.0 4.0 0.00 0.00 0.00 61 1017.8
20260831142308 89 211 0.0 5.0 0.00 0.00 0.00 61 1017.5
20260831141809 87 255 2.0 5.0 0.00 0.00 0.00 63 1017.7
20260831141303 87 172 3.0 5.0 0.00 0.00 0.00 63 1017.6
20260831140758 87 226 3.0 4.0 0.00 0.00 0.00 64 1017.6
20260831140252 86 191 3.0 5.0 0.00 0.00 0.00 65 1017.6
20260831135750 86 229 3.0 7.0 0.00 0.00 0.00 66 1017.2
20260831135246 85 226 3.0 6.0 0.00 0.00 0.00 67 1017.6
20260831134741 85 254 2.0 5.0 0.00 0.00 0.00 66 1017.5